Back to catalog

TIANXIANG 1

AliveCommunicationsVLEO
NORAD 44310·PAYLOAD·🇨🇳 China
This satellite name has not been confirmed by official sources yet.

Launched Jun 5, 2019 from Yellow Sea Launch Area

Loading…

Next Passes (next 24 hours)

TLE

FreshSource: Space-Track

Epoch: Sep 14, 2026, 12:19 UTC

1 44310U 19032A   26257.51334856  .00007745  00000-0  27195-3 0  9994
2 44310  44.9698 287.7525 0009716  44.1738 315.9920 15.29937111400866

Track TIANXIANG 1 in real time with AllMySat

Download on the App Store